Regional Weather Roundup
Issued by NWS Upton, NY

Current Version | Previous Version | Text Only | Print | Product List | Glossary Off
Versions: 1 2 3 4 5 6 7 8 9 10 11 12 13 14 15 16 17 18 19 20 21 22 23 24 25 26 27 28 29 30 31 32 33 34 35 36 37 38 39 40 41 42 43 44 45 46 47 48 49 50
134 ASUS41 KOKX 210108 RWROKX REGIONAL WEATHER ROUNDUP NATIONAL WEATHER SERVICE NEW YORK NY 900 PM EDT FRI OCT 20 2017 NOTE: "FAIR" INDICATES FEW OR NO CLOUDS BELOW 12,000 FEET WITH NO SIGNIFICANT WEATHER AND/OR OBSTRUCTIONS TO VISIBILITY. NYZ071-072-176-178-NJZ106-104-210200- NEW YORK CITY METRO AREA CITY SKY/WX TMP DP RH WIND PRES REMARKS Central Park CLEAR 65 37 35 VRB3 30.19R Bronx Bot Gard N/A 61 37 41 NE1 30.18S LaGuardia APRT PTCLDY 69 41 36 W8 30.15S Kennedy INTL PTCLDY 68 36 30 NW10 30.16S Breezy Point N/A 66 N/A N/A NW3 N/A Newark/Liberty CLEAR 66 36 32 NW7 30.17R Teterboro CLEAR 59 40 49 CALM 30.16R $$ NYZ177-179-078>081-210200- LONG ISLAND NEW YORK CITY SKY/WX TMP DP RH WIND PRES REMARKS Jones Beach N/A 64 N/A N/A N2 N/A Matinecock PT N/A 64 N/A N/A SW5 N/A Farmingdale CLEAR 59 43 55 CALM 30.16R MacArthur/ISP CLEAR 56 45 66 N7 30.15S Shirley CLEAR 53 46 77 CALM 30.15S Mt Sinai Harb N/A N/A N/A N/A MISG N/A Westhampton CLEAR 54 41 61 NW7 30.16S East Hampton FAIR 50 46 85 CALM 30.14R Montauk N/A 64 50 60 W5 30.15R $$ NYZ052-065-067-210200- HUDSON VALLEY CITY SKY/WX TMP DP RH WIND PRES REMARKS White Plains CLEAR 55 43 63 CALM 30.16R Larchmont Harb N/A 64 N/A N/A NW2 N/A Croton On Huds N/A 57 N/A N/A MISG N/A Newburgh NOT AVBL Montgomery CLEAR 59 35 40 NW7 30.17R Poughkeepsie CLEAR 50 42 74 CALM 30.16R Albany CLEAR 59 35 40 W10 30.16R $$ NJZ001-105-106-008-010-013-015-019>022-104-210200- NEW JERSEY CITY SKY/WX TMP DP RH WIND PRES REMARKS Newark/Liberty CLEAR 66 36 32 NW7 30.17R Teterboro CLEAR 59 40 49 CALM 30.16R Caldwell CLEAR 57 42 57 S5 30.18R Somerville CLEAR 52 44 74 NW7 30.17R Linden NOT AVBL Perth Amboy N/A 64 N/A N/A W7 N/A Sussex CLEAR 50 42 74 CALM 30.20R Andover N/A 50 44 80 CALM 30.21R Trenton CLEAR 58 39 49 CALM 30.18R Millville CLEAR 52 48 86 W5 30.20R Atlantic City CLEAR 56 45 66 NW6 30.19R Wrightstown CLEAR 55 41 59 CALM 30.16S Toms River N/A 50 42 74 SW3 30.19R Belmar CLEAR 60 40 47 SW3 30.19R $$ PAZ047>061-062-071-210200- EASTERN PENNSYLVANIA CITY SKY/WX TMP DP RH WIND PRES REMARKS Philadelphia CLEAR 65 39 38 W6 30.21R Allentown CLEAR 56 39 53 S3 30.21R Scranton CLEAR 51 38 60 E3 30.23R $$ CTZ002-004>006-009-010-012-RIZ004-006-007-MAZ004-011-015-210200- SOUTHERN NEW ENGLAND IN CT CITY SKY/WX TMP DP RH WIND PRES REMARKS Bradley INTL CLEAR 53 42 66 NW6 30.13R Hartford CLEAR 58 41 53 CALM 30.13R Danbury CLEAR 51 41 68 CALM 30.17R Wtrbury/Oxford CLEAR 54 38 54 E3 30.17R Norwalk Harbor N/A 63 N/A N/A W6 N/A Bridgeport CLEAR 58 41 53 NW3 30.15R Meriden CLEAR 51 41 68 CALM 30.15R New Haven CLEAR 64 41 42 NW6 30.15R Chester FAIR 57 41 54 NW6 30.14R Groton CLEAR 55 45 68 CALM 30.13R Wilimantic CLEAR 50 42 74 CALM 30.14R IN RI CITY SKY/WX TMP DP RH WIND PRES REMARKS Providence CLEAR 59 42 53 W7 30.12R Block Island CLEAR 63 49 60 W8 30.13R Westerly CLEAR 53 45 74 W3 30.13R IN MA CITY SKY/WX TMP DP RH WIND PRES REMARKS Boston CLEAR 65 35 33 NW13 30.09R Worcester CLEAR 59 32 36 NW13 30.12R Westfield CLEAR 50 41 71 N3 30.13R Provincetown CLEAR 60 50 69 W10 30.08R Nantucket CLEAR 57 51 80 W8 30.08R $$ ANZ330-335-338-340-345-350-353-355-210200- COASTAL MARINE OBSERVATIONS STATION/POSITION TIME SKY/WX TEMP WIND PRES VSBY WAVE AIR SEA DIR/SP/G HT/PER (UTC) (F) (DEG/KT/KT) (MB) (MI) (FT/S) NY HARB ENTRANCE 0050 67 65 300/ 8/ 10 1020.3 2/ 8 20 S FIRE ISLAND 2350 66 64 300/ 10/ 12 1020.6 2/ 8 GREAT SOUTH BAY 0015 61 62 CALM / 2 N/A 15 E BARNEGAT LI NOT AVBL HUDSON CANYON 2350 66 65 300/ 12/ 14 1019.9 3/ 9 KINGS POINT 0030 67 66 350/ 4/ 4 1021.8 EXECUTION ROCKS 0030 67 270/ 4/ 6 N/A WESTERN LI SOUND 2345 68 330/ 4/ 6 N/A 0 CENTRAL LI SOUND 0015 67 310/ 10/ 12 N/A 1 EASTERN LI SOUND NOT AVBL ROBBINS REEF 0030 69 320/ 6/ 9 1021.8 $$ >>>>>>>>>>>>>>>>>>>>>>>>>>>> KEY <<<<<<<<<<<<<<<<<<<<<<<<<<< > < > SKY/WX - Sky Condition/Present Weather < > TMP - Temperature in Fahrenheit < > DP - Dew Point in Fahrenheit < > RH - Relative Humidity in Percent < > WIND - Direction (from) and Speed in MPH < > PRES - Mean Sea Level Pressure (inches of Hg) < > WCI - Wind Chill Index < > VSB - VISIBILITY IN MILES < > HX - HEAT INDEX < > TC - TEMPERATURE IN CELSIUS < > VRB - VARIABLE WIND DIRECTION < > < >>>>>>>>>>>>>>>>>>>>>>>>>>>> KEY <<<<<<<<<<<<<<<<<<<<<<<<<<<

USA.gov is the U.S. government's official web portal to all federal, state and local government web resources and services.